Big Rapids, MI

7:16 PM EST on November 21, 2019 (GMT -0500)
Roben-Hood

Weather History for KRQB - October, 2019

Change the Weather History Date:

Thursday, October 24, 2019

  Actual Average Record
Temperature  
Mean Temperature 40 °F -  
Max Temperature 48 °F 56 °F 76 °F (1975)
Min Temperature 32 °F 36 °F 23 °F (1981)
Degree Days  
Heating Degree Days 24    
Moisture  
Dew Point 37 °F    
Average Humidity 82    
Maximum Humidity 97    
Minimum Humidity 57    
Precipitation  
Precipitation 0.22 in - - ()
Sea Level Pressure  
Sea Level Pressure 30.18 in    
Wind  
Wind Speed 4 mph (WNW)    
Max Wind Speed 8 mph    
Max Gust Speed -    
Visibility 10 miles    
Events Rain    
Averages and records for this station are not official NWS values.
T = Trace of Precipitation, MM = Missing Value Source: NWS Daily Summary

Daily Weather History Graph

Daily Weather History Graph

Search for Another Location

Airport or City:

Astronomy

Oct. 24, 2019 Rise Set
Actual Time 8:07 AM EDT 6:44 PM EDT
Civil Twilight 7:37 AM EDT 7:13 PM EDT
Nautical Twilight 7:04 AM EDT 7:47 PM EDT
Astronomical Twilight 6:31 AM EDT 8:20 PM EDT
Moon 3:24 AM EDT (10/24) 5:21 PM EDT (10/24)
Length of Visible Light 11h 35m
Length of Day
10h 37m
Waning Crescent, 17% of the Moon is Illuminated
Oct 24
Waning Crescent
Oct 27
New
Nov 4
First Quarter
Nov 12
Full
Nov 19
Last Quarter

Hourly Weather History & Observations

Time (EDT) Temp. Windchill Dew Point Humidity Pressure Visibility Wind Dir Wind Speed Gust Speed Precip Events Conditions
12:16 AM 42.6 °F 39.0 °F 39.2 °F 88% 29.98 in 7.0 mi NW 5.8 mph - N/A Rain Light Rain
12:35 AM 42.3 °F 40.5 °F 39.6 °F 90% 29.98 in 4.0 mi NNW 3.5 mph - 0.03 in   Overcast
12:59 AM 41.7 °F 38.0 °F 39.4 °F 91% 29.99 in 4.0 mi NW 5.8 mph - 0.10 in   Unknown
1:16 AM 41.0 °F 39.0 °F 38.7 °F 91% 29.99 in 4.0 mi NW 3.5 mph - 0.02 in   Unknown
1:35 AM 40.3 °F 36.3 °F 37.9 °F 91% 30.00 in 4.0 mi NW 5.8 mph - 0.05 in   Unknown
1:36 AM 40.3 °F 36.3 °F 37.9 °F 91% 30.00 in 4.0 mi NNW 5.8 mph - 0.05 in   Unknown
1:55 AM 39.2 °F 35.0 °F 37.0 °F 92% 30.00 in 3.0 mi NNW 5.8 mph - 0.08 in   Unknown
2:00 AM 39.2 °F 35.0 °F 37.0 °F 92% 30.00 in 5.0 mi NNW 5.8 mph - N/A   Unknown
2:17 AM 39.2 °F - 37.4 °F 93% 30.01 in 7.0 mi Calm Calm - 0.03 in   Unknown
2:35 AM 39.0 °F - 37.4 °F 94% 30.00 in 10.0 mi Calm Calm - 0.03 in   Unknown
2:36 AM 39.0 °F - 37.4 °F 94% 30.00 in 10.0 mi Calm Calm - 0.03 in   Unknown
2:55 AM 38.8 °F - 37.4 °F 95% 30.00 in 10.0 mi Calm Calm - 0.03 in   Overcast
3:18 AM 39.4 °F - 37.8 °F 94% 30.01 in 10.0 mi Calm Calm - N/A   Overcast
3:35 AM 39.2 °F - 37.6 °F 94% 30.01 in 10.0 mi Calm Calm - N/A   Overcast
3:55 AM 39.4 °F - 38.3 °F 96% 30.02 in 10.0 mi Calm Calm - N/A   Overcast
3:56 AM 39.4 °F - 38.3 °F 96% 30.02 in 10.0 mi Calm Calm - N/A   Overcast
4:15 AM 39.7 °F - 38.5 °F 95% 30.03 in 10.0 mi Calm Calm - N/A   Overcast
4:20 AM 39.9 °F - 38.5 °F 95% 30.03 in 10.0 mi Calm Calm - N/A   Overcast
4:37 AM 40.1 °F 38.0 °F 38.3 °F 93% 30.02 in 10.0 mi WNW 3.5 mph - 0.01 in   Overcast
4:55 AM 40.1 °F 36.1 °F 38.3 °F 93% 30.03 in 10.0 mi WNW 5.8 mph - 0.01 in   Overcast
4:56 AM 40.1 °F 36.1 °F 38.3 °F 93% 30.03 in 10.0 mi WNW 5.8 mph - 0.01 in   Overcast
5:15 AM 40.6 °F 36.7 °F 38.5 °F 92% 30.04 in 10.0 mi WNW 5.8 mph - N/A   Overcast
5:38 AM 41.0 °F 38.0 °F 38.8 °F 92% 30.05 in 10.0 mi West 4.6 mph - N/A   Overcast
5:55 AM 41.0 °F 38.0 °F 39.2 °F 93% 30.07 in 10.0 mi WSW 4.6 mph - N/A   Overcast
6:15 AM 41.0 °F 38.0 °F 39.4 °F 94% 30.07 in 10.0 mi West 4.6 mph - N/A   Overcast
6:56 AM 40.3 °F 37.1 °F 39.0 °F 95% 30.09 in 10.0 mi West 4.6 mph - N/A   Scattered Clouds
7:15 AM 39.2 °F 35.9 °F 38.1 °F 96% 30.09 in 10.0 mi West 4.6 mph - N/A   Clear
7:38 AM 38.8 °F 35.4 °F 37.8 °F 96% 30.11 in 10.0 mi West 4.6 mph - N/A   Clear
7:57 AM 38.7 °F 35.2 °F 37.8 °F 97% 30.12 in 10.0 mi West 4.6 mph - N/A   Clear
8:15 AM 39.2 °F 35.0 °F 38.3 °F 97% 30.13 in 10.0 mi WNW 5.8 mph - N/A   Clear
8:35 AM 39.4 °F 36.1 °F 38.5 °F 97% 30.13 in 10.0 mi West 4.6 mph - N/A   Clear
8:40 AM 39.6 °F 36.3 °F 38.5 °F 96% 30.14 in 10.0 mi WNW 4.6 mph - N/A   Clear
8:57 AM 40.1 °F 38.0 °F 38.7 °F 95% 30.14 in 10.0 mi West 3.5 mph - N/A   Clear
9:15 AM 41.2 °F 38.2 °F 39.2 °F 93% 30.15 in 10.0 mi WNW 4.6 mph - N/A   Clear
9:16 AM 41.2 °F 38.2 °F 39.2 °F 93% 30.15 in 10.0 mi WNW 4.6 mph - N/A   Clear
9:35 AM 41.9 °F 38.2 °F 39.4 °F 91% 30.17 in 10.0 mi WNW 5.8 mph - N/A   Clear
9:36 AM 42.1 °F 38.4 °F 39.2 °F 90% 30.17 in 10.0 mi WNW 5.8 mph - N/A   Clear
9:58 AM 42.8 °F 40.1 °F 39.4 °F 88% 30.18 in 10.0 mi WNW 4.6 mph - N/A   Clear
10:16 AM 43.7 °F 39.7 °F 39.7 °F 86% 30.19 in 10.0 mi WNW 6.9 mph - N/A   Clear
10:35 AM 44.8 °F 43.3 °F 39.7 °F 82% 30.20 in 10.0 mi West 3.5 mph - N/A   Scattered Clouds
10:58 AM 45.3 °F 41.1 °F 38.5 °F 77% 30.21 in 10.0 mi WNW 8.1 mph - N/A   Mostly Cloudy
11:35 AM 46.8 °F - 37.6 °F 70% 30.21 in 10.0 mi NNW 6.9 mph - N/A   Mostly Cloudy
11:55 AM 46.4 °F 42.9 °F 37.2 °F 70% 30.21 in 10.0 mi North 6.9 mph - N/A   Mostly Cloudy
12:00 PM 45.7 °F 41.5 °F 37.0 °F 72% 30.22 in 10.0 mi NW 8.1 mph - N/A   Mostly Cloudy
12:17 PM 47.3 °F - 36.3 °F 66% 30.23 in 10.0 mi West 8.1 mph - N/A   Mostly Cloudy
12:35 PM 48.9 °F - 36.7 °F 63% 30.23 in 10.0 mi West 8.1 mph - N/A   Overcast
12:36 PM 48.7 °F - 36.7 °F 63% 30.23 in 10.0 mi West 6.9 mph - N/A   Overcast
12:55 PM 47.3 °F - 36.3 °F 66% 30.24 in 10.0 mi WNW 5.8 mph - N/A   Overcast
12:56 PM 47.3 °F - 36.5 °F 66% 30.24 in 10.0 mi West 5.8 mph - N/A   Overcast
1:17 PM 47.1 °F - 35.6 °F 64% 30.24 in 10.0 mi West 8.1 mph - N/A   Overcast
2:19 PM 48.6 °F - 35.8 °F 61% 30.23 in 10.0 mi WNW 8.1 mph - N/A   Overcast
2:36 PM 47.3 °F - 35.4 °F 63% 30.24 in 10.0 mi WNW 6.9 mph - N/A   Overcast
2:55 PM 47.7 °F - 36.0 °F 64% 30.24 in 10.0 mi West 6.9 mph - N/A   Overcast
2:56 PM 47.8 °F - 36.0 °F 63% 30.24 in 10.0 mi West 8.1 mph - N/A   Overcast
3:15 PM 47.5 °F - 34.7 °F 61% 30.25 in 10.0 mi WNW 8.1 mph - N/A   Overcast
3:19 PM 47.5 °F - 34.9 °F 62% 30.25 in 10.0 mi West 6.9 mph - N/A   Overcast
3:37 PM 48.4 °F - 35.4 °F 61% 30.25 in 10.0 mi West 5.8 mph - N/A   Overcast
3:55 PM 48.7 °F - 34.9 °F 59% 30.25 in 10.0 mi West 6.9 mph - N/A   Overcast
3:56 PM 48.7 °F - 34.9 °F 59% 30.25 in 10.0 mi West 5.8 mph - N/A   Overcast
4:15 PM 48.4 °F - 33.8 °F 57% 30.26 in 10.0 mi WNW 5.8 mph - N/A   Overcast
4:38 PM 48.4 °F - 34.7 °F 59% 30.26 in 10.0 mi WNW 4.6 mph - N/A   Overcast
4:55 PM 48.0 °F - 35.2 °F 61% 30.26 in 10.0 mi West 3.5 mph - N/A   Overcast
4:56 PM 48.2 °F - 35.2 °F 61% 30.26 in 10.0 mi Calm Calm - N/A   Overcast
5:15 PM 48.2 °F - 35.6 °F 62% 30.26 in 10.0 mi West 3.5 mph - N/A   Overcast
5:16 PM 48.2 °F - 35.4 °F 61% 30.26 in 10.0 mi West 3.5 mph - N/A   Overcast
5:38 PM 47.8 °F - 35.2 °F 62% 30.27 in 10.0 mi WNW 4.6 mph - N/A   Overcast
5:55 PM 46.9 °F - 35.4 °F 64% 30.27 in 10.0 mi Calm Calm - N/A   Overcast
5:56 PM 46.9 °F - 35.4 °F 64% 30.27 in 10.0 mi Calm Calm - N/A   Overcast
6:15 PM 46.8 °F - 35.6 °F 65% 30.27 in 10.0 mi WNW 3.5 mph - N/A   Overcast
6:16 PM 46.6 °F - 35.6 °F 66% 30.27 in 10.0 mi WNW 4.6 mph - N/A   Overcast
6:56 PM 44.6 °F - 35.6 °F 71% 30.28 in 10.0 mi Calm Calm - N/A   Scattered Clouds
7:15 PM 43.2 °F 41.5 °F 35.6 °F 75% 30.28 in 10.0 mi WNW 3.5 mph - N/A   Clear
7:39 PM 42.1 °F 39.2 °F 35.6 °F 78% 30.28 in 10.0 mi WNW 4.6 mph - N/A   Clear
7:57 PM 41.7 °F 38.0 °F 35.6 °F 79% 30.29 in 10.0 mi WNW 5.8 mph - N/A   Clear
8:15 PM 40.5 °F 37.3 °F 35.1 °F 81% 30.29 in 10.0 mi WNW 4.6 mph - N/A   Clear
8:35 PM 40.1 °F 36.9 °F 35.1 °F 82% 30.30 in 10.0 mi WNW 4.6 mph - N/A   Clear
8:40 PM 40.1 °F 38.0 °F 35.1 °F 82% 30.30 in 10.0 mi WNW 3.5 mph - N/A   Scattered Clouds
8:57 PM 39.9 °F 37.8 °F 35.2 °F 83% 30.30 in 10.0 mi WNW 3.5 mph - N/A   Mostly Cloudy
9:15 PM 39.4 °F 36.1 °F 34.9 °F 84% 30.31 in 10.0 mi WNW 4.6 mph - N/A   Overcast
9:16 PM 39.4 °F 35.2 °F 34.9 °F 84% 30.31 in 10.0 mi WNW 5.8 mph - N/A   Overcast
9:35 PM 38.7 °F 36.3 °F 34.7 °F 86% 30.30 in 10.0 mi WNW 3.5 mph - N/A   Scattered Clouds
9:57 PM 37.9 °F - 34.0 °F 86% 30.32 in 10.0 mi Calm Calm - N/A   Scattered Clouds
10:15 PM 36.5 °F - 34.2 °F 91% 30.32 in 10.0 mi Calm Calm - N/A   Scattered Clouds
10:35 PM 36.1 °F - 34.2 °F 93% 30.33 in 10.0 mi Calm Calm - N/A   Clear
10:36 PM 36.0 °F - 34.0 °F 93% 30.32 in 10.0 mi Calm Calm - N/A   Clear
10:58 PM 34.5 °F - 32.9 °F 94% 30.33 in 10.0 mi Calm Calm - N/A   Clear
11:15 PM 34.3 °F - 33.1 °F 95% 30.34 in 10.0 mi Calm Calm - N/A   Clear
11:35 PM 33.6 °F - 32.5 °F 96% 30.34 in 10.0 mi Calm Calm - N/A   Clear
11:58 PM 32.9 °F - 32.2 °F 97% 30.34 in 10.0 mi Calm Calm - N/A   Clear